BAW904N EGLL-EDDF

Flight info

Callsign BAW904N
Flight time 1h 2m
Altitude 35000
Route DET L6 DVR UL9 KONAN UL607 SPI T180 NIVNU T847 IMCOM
Aircraft A319/M-SDE2E3FGHIJ1RWXY/SB1

Departure

Time 2026-05-05 17:56
Airport London Heathrow Airport (EGLL)

Arrival

Time 2026-05-05 18:58
Airport Frankfurt Main Airport (EDDF)
Time Latitude Longitude Altitude Speed Heading
2026-05-05 17:37 51.46932 -0.48715 89 ft 0 kts 360°
2026-05-05 17:48 51.46913 -0.48715 90 ft 4 kts 360°
2026-05-05 17:49 51.46891 -0.48714 89 ft 4 kts
2026-05-05 17:49 51.46877 -0.48731 89 ft 4 kts 84°
2026-05-05 17:49 51.46876 -0.48772 86 ft 4 kts 89°
2026-05-05 17:49 51.46876 -0.48793 86 ft 0 kts 89°
2026-05-05 17:51 51.46876 -0.48775 86 ft 3 kts 90°
2026-05-05 17:51 51.46854 -0.48751 86 ft 5 kts 173°
2026-05-05 17:51 51.46812 -0.48750 86 ft 8 kts 179°
2026-05-05 17:52 51.46743 -0.48748 86 ft 11 kts 180°
2026-05-05 17:52 51.46661 -0.48748 86 ft 9 kts 180°
2026-05-05 17:52 51.46605 -0.48765 90 ft 7 kts 197°
2026-05-05 17:52 51.46603 -0.48766 90 ft 0 kts 198°
2026-05-05 17:53 51.46602 -0.48767 90 ft 1 kts 198°
2026-05-05 17:53 51.46578 -0.48779 88 ft 7 kts 198°
2026-05-05 17:53 51.46514 -0.48775 90 ft 12 kts 153°
2026-05-05 17:54 51.46478 -0.48651 86 ft 14 kts 93°
2026-05-05 17:54 51.46478 -0.48549 86 ft 5 kts 89°
2026-05-05 17:54 51.46478 -0.48525 86 ft 0 kts 89°
2026-05-05 17:55 51.46478 -0.48515 86 ft 5 kts 89°
2026-05-05 17:55 51.46480 -0.48144 88 ft 63 kts 90°
2026-05-05 17:55 51.46483 -0.47132 87 ft 117 kts 90°
2026-05-05 17:56 51.46488 -0.45559 96 ft 164 kts 91°
2026-05-05 17:56 51.46471 -0.43735 706 ft 163 kts 88°
2026-05-05 17:56 51.46429 -0.41920 1383 ft 166 kts 101°
2026-05-05 17:56 51.45796 -0.40248 1690 ft 191 kts 127°
2026-05-05 17:57 51.44995 -0.38387 2016 ft 213 kts 119°
2026-05-05 17:57 51.44198 -0.36246 2436 ft 236 kts 118°
2026-05-05 17:57 51.43525 -0.33735 3027 ft 254 kts 101°
2026-05-05 17:57 51.43149 -0.30933 3965 ft 260 kts 100°
2026-05-05 17:58 51.42748 -0.28094 4968 ft 264 kts 101°
2026-05-05 17:58 51.42341 -0.25199 5936 ft 269 kts 100°
2026-05-05 17:58 51.41934 -0.22242 6847 ft 274 kts 100°
2026-05-05 17:58 51.41522 -0.19228 7726 ft 279 kts 101°
2026-05-05 17:59 51.41104 -0.16157 8608 ft 284 kts 101°
2026-05-05 17:59 51.40716 -0.13333 9407 ft 289 kts 101°
2026-05-05 17:59 51.40284 -0.10198 10164 ft 297 kts 101°
2026-05-05 17:59 51.39815 -0.06773 10456 ft 321 kts 101°
2026-05-05 18:00 51.39320 -0.03149 10692 ft 344 kts 101°
2026-05-05 18:00 51.38807 0.00573 11265 ft 352 kts 101°
2026-05-05 18:00 51.38270 0.04420 12008 ft 355 kts 101°
2026-05-05 18:00 51.37727 0.08282 12753 ft 358 kts 102°
2026-05-05 18:01 51.37175 0.12187 13512 ft 361 kts 102°
2026-05-05 18:01 51.36617 0.16125 14170 ft 364 kts 102°
2026-05-05 18:01 51.36054 0.20086 14801 ft 367 kts 102°
2026-05-05 18:01 51.35488 0.24097 15427 ft 371 kts 102°
2026-05-05 18:02 51.34916 0.28150 16065 ft 375 kts 102°
2026-05-05 18:02 51.34337 0.32244 16702 ft 379 kts 102°
2026-05-05 18:02 51.33750 0.36376 17337 ft 382 kts 101°
2026-05-05 18:02 51.33154 0.40544 17997 ft 386 kts 102°
2026-05-05 18:03 51.32553 0.44732 18735 ft 389 kts 101°
2026-05-05 18:03 51.31939 0.48996 19296 ft 392 kts 101°
2026-05-05 18:03 51.31332 0.53199 19861 ft 395 kts 101°
2026-05-05 18:03 51.30716 0.57478 20413 ft 398 kts 102°
2026-05-05 18:04 51.30075 0.61790 20953 ft 401 kts 103°
2026-05-05 18:04 51.29343 0.66135 21469 ft 405 kts 104°
2026-05-05 18:04 51.28548 0.70460 21956 ft 408 kts 106°
2026-05-05 18:04 51.27714 0.74820 22434 ft 412 kts 106°
2026-05-05 18:05 51.26866 0.79234 22889 ft 415 kts 106°
2026-05-05 18:05 51.26024 0.83659 23337 ft 418 kts 105°
2026-05-05 18:05 51.25190 0.88107 23752 ft 421 kts 106°
2026-05-05 18:05 51.24358 0.92590 24144 ft 423 kts 106°
2026-05-05 18:06 51.23523 0.97114 24513 ft 426 kts 107°
2026-05-05 18:06 51.22956 1.00185 24745 ft 429 kts 107°
2026-05-05 18:06 51.21835 1.06243 25280 ft 431 kts 107°
2026-05-05 18:06 51.20980 1.10843 25704 ft 433 kts 108°
2026-05-05 18:07 51.20119 1.15458 26132 ft 434 kts 108°
2026-05-05 18:07 51.19253 1.20088 26551 ft 436 kts 107°
2026-05-05 18:07 51.18380 1.24729 26969 ft 437 kts 108°
2026-05-05 18:07 51.17512 1.29319 27380 ft 438 kts 108°
2026-05-05 18:08 51.16641 1.34040 27769 ft 441 kts 105°
2026-05-05 18:08 51.16121 1.38807 28133 ft 444 kts 97°
2026-05-05 18:08 51.15896 1.43732 28495 ft 446 kts 96°
2026-05-05 18:08 51.15670 1.48664 28828 ft 449 kts 96°
2026-05-05 18:09 51.15433 1.53635 29163 ft 451 kts 97°
2026-05-05 18:09 51.15187 1.58626 29507 ft 453 kts 97°
2026-05-05 18:09 51.14938 1.63639 29832 ft 455 kts 97°
2026-05-05 18:09 51.14685 1.68657 30154 ft 456 kts 97°
2026-05-05 18:10 51.14429 1.73687 30554 ft 454 kts 96°
2026-05-05 18:10 51.14174 1.78698 30978 ft 453 kts 96°
2026-05-05 18:10 51.13921 1.83687 31415 ft 451 kts 96°
2026-05-05 18:10 51.13670 1.88639 31854 ft 449 kts 97°
2026-05-05 18:11 51.13414 1.93590 32300 ft 446 kts 97°
2026-05-05 18:11 51.13156 1.98501 32774 ft 444 kts 97°
2026-05-05 18:11 51.12897 2.03394 33226 ft 442 kts 97°
2026-05-05 18:11 51.12640 2.08267 33683 ft 440 kts 97°
2026-05-05 18:12 51.12383 2.13104 34098 ft 439 kts 97°
2026-05-05 18:12 51.12122 2.17947 34423 ft 439 kts 97°
2026-05-05 18:12 51.11863 2.22734 34714 ft 440 kts 97°
2026-05-05 18:12 51.11600 2.27600 34877 ft 441 kts 97°
2026-05-05 18:13 51.11334 2.32463 34913 ft 440 kts 98°
2026-05-05 18:13 51.10791 2.42148 34912 ft 440 kts 98°
2026-05-05 18:14 51.10245 2.51853 34909 ft 440 kts 98°
2026-05-05 18:14 51.09688 2.61556 34909 ft 440 kts 98°
2026-05-05 18:15 51.08429 2.70992 34907 ft 436 kts 109°
2026-05-05 18:15 51.06752 2.80203 34909 ft 436 kts 109°
2026-05-05 18:16 51.05069 2.89457 34914 ft 436 kts 109°
2026-05-05 18:16 51.03377 2.98718 34913 ft 436 kts 109°
2026-05-05 18:17 51.01685 3.07957 34906 ft 436 kts 109°
2026-05-05 18:17 50.99979 3.17182 34899 ft 436 kts 109°
2026-05-05 18:18 50.98267 3.26433 34887 ft 435 kts 109°
2026-05-05 18:18 50.96553 3.35641 34875 ft 435 kts 109°
2026-05-05 18:19 50.94827 3.44856 34865 ft 435 kts 109°
2026-05-05 18:19 50.93097 3.54046 34865 ft 435 kts 109°
2026-05-05 18:20 50.91352 3.63242 34863 ft 435 kts 109°
2026-05-05 18:20 50.89594 3.72413 34865 ft 435 kts 110°
2026-05-05 18:21 50.87832 3.81529 34857 ft 435 kts 110°
2026-05-05 18:21 50.86054 3.90692 34861 ft 436 kts 110°
2026-05-05 18:22 50.84269 3.99858 34870 ft 436 kts 110°
2026-05-05 18:22 50.82470 4.09030 34874 ft 436 kts 110°
2026-05-05 18:23 50.80663 4.18177 34882 ft 436 kts 110°
2026-05-05 18:23 50.78852 4.27330 34890 ft 435 kts 110°
2026-05-05 18:24 50.77114 4.36085 34898 ft 434 kts 110°
2026-05-05 18:24 50.75304 4.45174 34898 ft 434 kts 110°
2026-05-05 18:25 50.73485 4.54260 34894 ft 433 kts 110°
2026-05-05 18:25 50.71666 4.63317 34888 ft 433 kts 110°
2026-05-05 18:26 50.69904 4.72399 34868 ft 433 kts 109°
2026-05-05 18:26 50.68158 4.81493 34867 ft 433 kts 110°
2026-05-05 18:27 50.66394 4.90551 34865 ft 432 kts 110°
2026-05-05 18:27 50.64583 4.99591 34864 ft 432 kts 110°
2026-05-05 18:28 50.61794 5.13033 34848 ft 432 kts 111°
2026-05-05 18:28 50.59928 5.22008 34855 ft 431 kts 111°
2026-05-05 18:29 50.58063 5.30972 34862 ft 431 kts 111°
2026-05-05 18:29 50.56182 5.39958 34859 ft 431 kts 111°
2026-05-05 18:30 50.54623 5.47373 34860 ft 431 kts 111°
2026-05-05 18:30 50.52741 5.56323 34860 ft 431 kts 111°
2026-05-05 18:31 50.50873 5.65251 34881 ft 430 kts 110°
2026-05-05 18:31 50.49172 5.74284 34870 ft 429 kts 108°
2026-05-05 18:32 50.48365 5.78768 34639 ft 428 kts 108°
2026-05-05 18:32 50.47554 5.83254 34258 ft 426 kts 109°
2026-05-05 18:32 50.46728 5.87755 33346 ft 431 kts 109°
2026-05-05 18:32 50.45883 5.92279 32433 ft 434 kts 109°
2026-05-05 18:33 50.45018 5.96842 31512 ft 437 kts 108°
2026-05-05 18:33 50.44144 6.01429 30605 ft 439 kts 108°
2026-05-05 18:33 50.43263 6.06039 29472 ft 445 kts 108°
2026-05-05 18:33 50.42371 6.10714 28357 ft 448 kts 108°
2026-05-05 18:34 50.41488 6.15336 27592 ft 444 kts 108°
2026-05-05 18:34 50.40611 6.19934 27000 ft 437 kts 108°
2026-05-05 18:34 50.39747 6.24457 26342 ft 431 kts 108°
2026-05-05 18:34 50.38886 6.28939 25681 ft 427 kts 108°
2026-05-05 18:35 50.38023 6.33417 25059 ft 425 kts 108°
2026-05-05 18:35 50.37167 6.37851 24828 ft 427 kts 108°
2026-05-05 18:35 50.36435 6.42349 24413 ft 425 kts 101°
2026-05-05 18:35 50.36106 6.46941 24244 ft 427 kts 96°
2026-05-05 18:36 50.35830 6.51556 24045 ft 426 kts 97°
2026-05-05 18:36 50.35539 6.56196 23834 ft 426 kts 97°
2026-05-05 18:36 50.35240 6.60810 23625 ft 425 kts 97°
2026-05-05 18:36 50.34938 6.65409 23393 ft 424 kts 97°
2026-05-05 18:37 50.34633 6.70054 23125 ft 440 kts 97°
2026-05-05 18:37 50.34313 6.74903 22847 ft 455 kts 97°
2026-05-05 18:37 50.33989 6.79885 22576 ft 462 kts 97°
2026-05-05 18:37 50.33541 6.84871 22304 ft 462 kts 103°
2026-05-05 18:38 50.32592 6.89591 22035 ft 460 kts 114°
2026-05-05 18:38 50.31248 6.94180 21762 ft 458 kts 116°
2026-05-05 18:38 50.29915 6.98640 21193 ft 455 kts 116°
2026-05-05 18:38 50.28578 7.03109 20500 ft 451 kts 116°
2026-05-05 18:39 50.27256 7.07529 19866 ft 448 kts 116°
2026-05-05 18:39 50.25934 7.11948 19247 ft 446 kts 116°
2026-05-05 18:39 50.24635 7.16284 18810 ft 434 kts 116°
2026-05-05 18:39 50.23377 7.20486 18288 ft 422 kts 116°
2026-05-05 18:40 50.22136 7.24622 17480 ft 418 kts 116°
2026-05-05 18:40 50.20907 7.28704 16871 ft 410 kts 116°
2026-05-05 18:40 50.19705 7.32688 16288 ft 403 kts 116°
2026-05-05 18:40 50.18600 7.36684 15705 ft 398 kts 114°
2026-05-05 18:41 50.17606 7.40715 15114 ft 393 kts 112°
2026-05-05 18:41 50.16893 7.44773 14575 ft 389 kts 99°
2026-05-05 18:41 50.16857 7.49003 13970 ft 387 kts 88°
2026-05-05 18:41 50.17004 7.53112 13294 ft 385 kts 88°
2026-05-05 18:42 50.17170 7.57273 12629 ft 382 kts 87°
2026-05-05 18:42 50.17341 7.61378 12033 ft 377 kts 87°
2026-05-05 18:42 50.17508 7.65419 11505 ft 369 kts 88°
2026-05-05 18:42 50.17669 7.69395 10911 ft 365 kts 88°
2026-05-05 18:43 50.17822 7.73329 10304 ft 361 kts 88°
2026-05-05 18:43 50.17971 7.77212 9734 ft 357 kts 88°
2026-05-05 18:43 50.18113 7.80996 9581 ft 341 kts 88°
2026-05-05 18:43 50.18244 7.84604 9444 ft 325 kts 88°
2026-05-05 18:44 50.18368 7.88065 9315 ft 312 kts 88°
2026-05-05 18:44 50.18488 7.91381 9180 ft 301 kts 88°
2026-05-05 18:44 50.18604 7.94610 8956 ft 295 kts 89°
2026-05-05 18:44 50.18717 7.97814 8823 ft 293 kts 88°
2026-05-05 18:45 50.18826 8.00971 8840 ft 294 kts 88°
2026-05-05 18:45 50.18937 8.04160 8845 ft 294 kts 88°
2026-05-05 18:45 50.19050 8.07348 8846 ft 294 kts 88°
2026-05-05 18:45 50.19163 8.10553 8847 ft 294 kts 88°
2026-05-05 18:46 50.19274 8.13741 8849 ft 294 kts 88°
2026-05-05 18:46 50.19384 8.16930 8850 ft 294 kts 89°
2026-05-05 18:46 50.19491 8.20117 8851 ft 297 kts 89°
2026-05-05 18:46 50.19600 8.23475 8854 ft 322 kts 88°
2026-05-05 18:47 50.19715 8.27020 8853 ft 327 kts 89°
2026-05-05 18:47 50.19832 8.30579 8851 ft 329 kts 89°
2026-05-05 18:47 50.19937 8.33741 8851 ft 329 kts 88°
2026-05-05 18:47 50.20054 8.37261 8853 ft 329 kts 89°
2026-05-05 18:48 50.20170 8.40872 8756 ft 327 kts 89°
2026-05-05 18:48 50.20282 8.44407 8272 ft 325 kts 89°
2026-05-05 18:48 50.20393 8.47921 7803 ft 323 kts 89°
2026-05-05 18:48 50.20506 8.51414 7352 ft 320 kts 89°
2026-05-05 18:49 50.20617 8.54858 7042 ft 313 kts 89°
2026-05-05 18:49 50.20725 8.58208 6818 ft 304 kts 89°
2026-05-05 18:49 50.20833 8.61469 6598 ft 298 kts 89°
2026-05-05 18:49 50.20942 8.64687 6379 ft 296 kts 89°
2026-05-05 18:50 50.21048 8.67839 6162 ft 295 kts 89°
2026-05-05 18:50 50.21154 8.71074 5910 ft 294 kts 89°
2026-05-05 18:50 50.21253 8.74192 5566 ft 291 kts 89°
2026-05-05 18:50 50.21349 8.77364 5191 ft 290 kts 89°
2026-05-05 18:51 50.21440 8.80499 4829 ft 288 kts 89°
2026-05-05 18:51 50.21419 8.83560 4646 ft 278 kts 102°
2026-05-05 18:51 50.20684 8.86268 4394 ft 268 kts 126°
2026-05-05 18:51 50.19620 8.88629 4141 ft 264 kts 128°
2026-05-05 18:52 50.18548 8.90896 4013 ft 259 kts 129°
2026-05-05 18:52 50.17376 8.93025 4014 ft 256 kts 145°
2026-05-05 18:52 50.15784 8.94135 4013 ft 249 kts 173°
2026-05-05 18:52 50.14114 8.94040 4017 ft 238 kts 197°
2026-05-05 18:53 50.12662 8.92890 4019 ft 234 kts 221°
2026-05-05 18:53 50.11655 8.90924 4018 ft 233 kts 244°
2026-05-05 18:53 50.11068 8.88558 4019 ft 234 kts 250°
2026-05-05 18:53 50.10522 8.86206 3973 ft 226 kts 250°
2026-05-05 18:54 50.09985 8.83916 3749 ft 224 kts 250°
2026-05-05 18:54 50.09451 8.81648 3470 ft 222 kts 250°
2026-05-05 18:54 50.08918 8.79388 3174 ft 222 kts 250°
2026-05-05 18:54 50.08394 8.77169 2875 ft 220 kts 250°
2026-05-05 18:55 50.07872 8.74959 2581 ft 215 kts 250°
2026-05-05 18:55 50.07366 8.72821 2296 ft 205 kts 250°
2026-05-05 18:55 50.06888 8.70801 2023 ft 193 kts 250°
2026-05-05 18:55 50.06445 8.68930 1792 ft 179 kts 250°
2026-05-05 18:56 50.06027 8.67170 1545 ft 168 kts 250°
2026-05-05 18:56 50.05636 8.65522 1332 ft 152 kts 250°
2026-05-05 18:56 50.05290 8.64066 1114 ft 136 kts 249°
2026-05-05 18:56 50.04968 8.62714 941 ft 131 kts 249°
2026-05-05 18:57 50.04656 8.61402 775 ft 129 kts 249°
2026-05-05 18:57 50.04341 8.60078 606 ft 129 kts 249°
2026-05-05 18:57 50.04032 8.58765 428 ft 129 kts 249°
2026-05-05 18:57 50.03727 8.57498 362 ft 115 kts 249°
2026-05-05 18:58 50.03507 8.56559 355 ft 68 kts 250°
2026-05-05 18:58 50.03439 8.56090 350 ft 33 kts 272°
2026-05-05 18:58 50.03468 8.55782 344 ft 20 kts 279°
2026-05-05 18:58 50.03558 8.55759 350 ft 17 kts 52°
2026-05-05 18:59 50.03602 8.55936 354 ft 18 kts 70°
2026-05-05 18:59 50.03650 8.56137 352 ft 22 kts 69°
2026-05-05 18:59 50.03710 8.56386 355 ft 27 kts 69°
2026-05-05 18:59 50.03784 8.56697 358 ft 34 kts 70°
2026-05-05 19:00 50.03873 8.57068 360 ft 40 kts 69°
2026-05-05 19:00 50.03975 8.57495 367 ft 45 kts 69°
2026-05-05 19:00 50.04075 8.57909 369 ft 33 kts 70°
2026-05-05 19:00 50.04155 8.58143 368 ft 13 kts 34°
2026-05-05 19:01 50.04259 8.58212 367 ft 19 kts
2026-05-05 19:01 50.04399 8.58137 371 ft 24 kts 339°
2026-05-05 19:01 50.04564 8.58043 363 ft 13 kts 340°
2026-05-05 19:01 50.04659 8.57989 358 ft 15 kts 340°
2026-05-05 19:02 50.04696 8.57967 359 ft 4 kts 340°
2026-05-05 19:02 50.04705 8.57962 363 ft 0 kts 339°
2026-05-05 19:02 50.04723 8.57952 358 ft 5 kts 345°
2026-05-05 19:02 50.04787 8.58009 364 ft 15 kts 54°
2026-05-05 19:03 50.04829 8.58171 360 ft 16 kts 68°
2026-05-05 19:03 50.04875 8.58350 366 ft 19 kts 69°
2026-05-05 19:03 50.04925 8.58527 362 ft 5 kts 21°
2026-05-05 19:03 50.04963 8.58480 362 ft 9 kts 314°
2026-05-05 19:04 50.04993 8.58437 359 ft 0 kts 316°